GFSFLT1_sfc_wetblb_000.txt.gz
Wetbulb
55.51 55.82 56.72 55.78 56.57 55.51 55.06 54.54 54.27 54.96 54.29 53.91 53.68 53.58 53.66 53.68 53.86 53.59 53.69 52.60 52.37 51.24 51.57 51.02 50.59 49.34 48.78 48.52 47.84 47.88 47.30 46.95
56.18 56.75 56.52 55.10 55.58 54.26 53.67 53.12 53.55 52.49 51.84 50.93 50.69 50.55 51.85 52.49 52.90 53.34 53.15 52.66 52.32 51.15 50.42 49.82 50.19 49.08 48.37 48.11 47.42 46.51 45.93 47.34
54.52 55.57 55.76 55.15 54.36 54.17 53.38 53.18 53.29 52.64 51.78 51.59 51.58 51.80 51.74 51.89 52.38 52.23 52.45 52.85 51.80 51.37 50.61 49.07 49.19 47.80 48.02 48.22 47.48 45.29 45.88 46.16
52.69 54.81 54.88 55.22 54.00 53.86 53.86 53.21 52.99 52.90 51.90 51.65 51.58 51.32 50.28 49.29 49.62 50.30 51.60 52.03 52.42 51.80 50.94 49.76 48.84 48.49 47.40 47.00 46.42 45.88 43.53 45.10
53.06 54.25 53.84 54.86 54.06 55.26 54.44 54.00 53.07 52.99 53.02 50.52 49.74 48.04 46.78 47.95 48.37 49.39 50.08 51.86 51.30 51.09 50.93 50.43 48.94 48.51 47.50 47.70 47.84 46.83 45.26 42.59
52.24 52.40 53.26 54.13 54.43 54.67 54.34 54.11 53.54 53.28 52.98 51.55 49.79 48.67 48.60 49.11 49.13 49.72 49.09 49.54 50.14 50.21 49.85 49.33 48.08 48.01 47.47 46.57 46.28 46.25 45.75 44.26
52.28 53.10 53.75 53.06 55.00 54.53 54.93 53.95 53.34 53.42 52.70 51.89 50.26 48.14 48.63 48.00 48.18 46.44 47.55 47.69 47.35 48.23 47.43 46.03 45.93 45.50 44.78 44.20 43.91 43.94 43.73 43.60
52.10 52.08 52.48 53.04 53.34 54.29 54.87 53.97 52.60 53.02 52.81 52.05 50.57 49.65 48.96 48.22 47.89 46.29 45.89 43.94 44.25 44.05 44.23 43.80 43.21 43.00 43.24 43.01 42.13 41.78 41.96 41.68
52.24 53.21 53.83 53.54 54.04 54.13 53.96 52.98 52.27 52.58 52.23 51.85 51.02 50.26 48.63 47.97 47.25 45.16 43.38 42.83 43.00 44.03 43.01 42.93 42.86 42.93 42.02 41.70 41.20 40.98 40.86 40.76
52.65 53.00 53.27 53.42 53.54 53.12 52.83 52.76 53.04 52.53 51.98 51.52 50.31 49.30 47.76 45.93 45.86 44.22 43.09 43.40 43.13 43.40 42.79 42.22 42.05 41.74 41.26 40.67 39.59 39.65 40.27 40.14
52.56 52.54 52.36 52.92 53.29 53.64 53.49 53.26 51.31 50.49 50.46 49.04 46.67 45.86 45.36 43.96 43.48 42.61 42.36 41.96 42.16 41.90 41.33 41.03 40.60 40.24 39.97 39.18 38.09 38.69 38.83 39.10
52.04 52.50 52.68 52.47 52.73 51.83 51.22 49.99 49.00 48.28 47.66 45.62 44.07 43.84 43.65 42.63 41.86 41.31 41.13 41.60 41.04 40.77 40.22 39.44 39.28 38.81 38.61 37.51 37.30 37.78 37.39 37.30
50.74 51.05 51.47 51.32 50.94 50.64 50.65 48.78 47.71 46.66 45.79 43.79 42.74 42.29 41.80 40.79 40.56 41.01 41.80 40.38 40.70 40.10 39.60 39.20 38.65 38.07 37.65 36.86 36.17 36.71 36.08 35.57
49.96 50.33 50.02 49.79 49.56 49.45 49.99 47.50 46.64 45.43 43.51 42.28 41.26 40.72 40.42 40.02 40.51 40.94 40.29 40.30 39.50 39.28 38.98 37.97 37.51 36.97 36.39 36.20 36.03 35.62 35.16 35.16
49.48 48.94 49.05 49.22 48.95 48.70 47.90 46.05 46.36 44.27 42.82 41.63 40.66 39.90 41.03 40.63 40.48 40.32 40.04 39.60 38.82 37.88 37.64 36.97 36.30 35.88 35.97 35.75 35.48 34.38 33.90 34.47
47.89 47.36 47.78 47.82 48.00 48.16 46.29 45.53 45.07 44.02 42.35 41.32 41.73 41.91 41.81 40.92 40.37 39.56 39.20 38.72 38.02 37.17 35.87 35.19 35.18 35.49 35.69 34.08 33.53 31.94 31.35 31.22
46.76 46.97 46.21 46.72 47.34 47.17 43.99 43.92 43.88 43.17 41.61 42.22 42.78 41.67 41.33 39.61 39.00 38.32 37.80 37.01 35.58 34.93 33.87 33.74 33.33 34.95 34.91 34.82 33.30 30.23 30.18 29.69
46.37 45.39 45.76 46.90 46.38 44.22 42.52 43.39 44.18 43.23 42.69 41.23 40.70 40.86 39.57 38.31 38.13 37.20 35.56 33.56 33.65 32.28 32.35 32.49 32.00 32.27 34.44 34.18 33.06 29.83 28.84 28.75
45.54 45.87 46.40 46.37 44.25 42.26 43.25 44.03 43.33 41.33 40.52 40.68 41.10 39.53 37.77 37.25 36.48 34.97 33.01 32.32 31.49 31.12 31.11 31.42 30.59 31.76 32.57 32.21 31.46 28.81 28.12 28.27

GFSFLT1_sfc_wetblb_003.txt.gz
Wetbulb
50.12 49.49 49.96 49.31 48.86 49.05 49.43 48.60 48.27 49.55 48.94 48.10 47.94 47.75 48.03 48.92 50.72 51.10 51.57 50.42 49.84 47.46 48.40 48.40 47.62 46.63 46.28 45.61 45.04 45.36 44.86 44.30
50.43 50.11 48.76 48.57 48.28 48.12 48.50 47.89 48.14 47.75 46.39 45.97 45.52 45.43 46.88 47.18 47.69 50.16 50.08 49.48 49.16 47.67 46.61 47.49 47.33 46.03 45.46 45.14 45.08 43.98 43.17 44.09
49.38 49.79 48.13 47.84 47.78 47.92 47.54 47.94 47.75 47.24 46.99 46.51 46.03 45.42 46.03 46.91 47.81 48.37 49.32 48.97 48.65 48.04 47.14 45.44 45.95 45.06 44.63 44.66 44.96 43.00 43.45 43.81
47.79 48.97 47.97 47.63 47.51 47.91 48.70 48.01 47.87 47.75 47.31 46.67 46.03 45.64 45.91 44.97 45.57 46.68 47.38 48.65 48.73 48.24 47.20 46.28 45.51 44.94 44.14 44.57 43.69 42.54 41.19 43.39
47.97 46.90 46.01 47.61 48.22 48.48 49.15 49.46 49.13 48.87 47.76 45.62 45.05 44.40 44.12 44.45 45.10 45.18 46.55 48.17 48.72 48.99 48.34 47.27 46.24 45.20 44.53 44.79 46.08 44.26 42.91 40.92
47.03 46.11 46.72 46.64 48.69 48.49 48.92 49.22 49.57 49.95 48.40 46.67 45.40 43.98 45.36 45.67 46.05 45.59 45.34 46.99 47.92 47.91 46.38 46.39 45.51 44.66 44.25 42.72 42.19 42.45 43.14 42.84
47.36 47.34 48.70 48.25 49.01 48.59 48.22 48.13 49.03 49.39 49.11 48.20 46.68 45.80 46.24 45.33 44.90 43.96 44.90 44.69 44.53 44.08 43.86 42.36 41.97 41.70 41.96 41.73 41.45 40.27 39.94 40.56
46.93 45.53 47.54 47.94 48.07 48.44 48.31 48.65 48.95 49.15 48.40 48.05 47.83 47.36 46.36 45.50 44.82 42.88 42.12 41.18 41.70 41.09 41.73 41.68 41.51 41.66 41.83 41.90 41.08 40.12 39.59 39.23
46.53 46.23 47.61 47.63 48.13 48.09 48.40 49.26 49.51 49.47 47.97 47.70 48.03 47.71 47.23 47.07 45.70 42.99 40.23 39.70 40.83 41.29 41.04 41.25 41.01 40.99 40.83 41.03 40.34 39.51 38.78 39.00
45.94 47.19 47.81 47.42 47.62 47.85 46.90 46.97 48.26 48.44 46.32 45.80 44.57 44.38 42.91 41.00 39.45 39.89 40.22 40.92 41.22 40.38 39.86 39.64 40.07 40.48 40.70 40.00 38.69 38.22 37.96 38.49
47.19 46.89 47.44 47.50 47.32 46.34 46.30 46.57 45.80 45.35 43.05 41.83 41.13 39.99 39.39 40.05 41.08 39.81 39.58 39.70 39.82 39.63 39.38 39.76 40.16 39.85 39.42 38.77 37.86 37.94 37.29 37.55
45.89 46.84 48.07 46.82 46.35 46.13 45.80 46.34 45.90 42.23 41.15 39.73 39.37 38.95 38.57 38.06 38.70 38.70 38.70 38.71 39.09 39.28 39.69 39.44 39.17 38.34 38.61 37.95 37.04 36.86 36.05 36.11
46.26 46.15 46.20 46.05 46.07 46.07 46.45 46.60 42.60 41.00 39.71 38.53 38.04 37.62 36.71 36.30 37.22 38.27 38.48 37.82 39.06 38.63 38.73 38.74 38.44 38.39 37.61 36.29 35.33 35.08 34.49 34.06
46.01 46.10 46.24 46.14 45.42 45.94 45.76 45.65 40.51 40.21 38.25 37.19 36.48 36.22 35.76 35.74 36.74 36.83 37.81 38.05 37.98 37.69 38.06 37.69 37.38 36.85 36.15 35.07 34.57 34.26 33.57 33.30
45.29 45.19 45.53 44.48 45.24 45.94 44.96 41.27 41.35 41.09 38.13 36.75 35.89 35.76 35.69 36.14 35.85 36.25 36.84 37.56 36.47 36.77 36.81 36.91 36.37 35.35 34.82 34.44 34.37 32.73 31.73 31.81
44.72 44.92 44.53 43.28 45.25 45.27 41.99 40.67 41.47 41.98 39.68 37.04 37.20 37.49 37.76 37.54 36.93 36.20 36.47 35.98 36.54 36.05 35.28 33.88 33.28 33.50 34.16 32.20 31.11 29.97 28.86 28.72
44.68 45.08 44.79 44.81 45.19 42.22 41.80 41.31 42.27 42.71 41.20 40.56 40.85 40.14 39.28 38.46 37.72 37.55 36.01 34.87 34.12 32.85 31.60 31.24 30.51 32.98 34.30 34.31 31.97 28.32 28.18 27.51
43.94 44.03 44.11 44.58 42.87 41.28 39.66 41.17 42.20 42.48 41.68 40.88 40.68 40.60 40.08 39.19 38.16 35.59 33.81 31.71 30.41 29.08 28.90 29.05 28.78 29.10 33.58 33.39 32.62 28.75 27.41 26.88
42.71 43.50 43.53 41.27 39.69 39.92 40.63 41.57 43.02 41.44 40.45 40.39 40.56 40.14 38.52 35.30 34.54 33.25 30.46 29.02 27.93 27.30 27.50 27.78 27.37 29.16 32.32 32.41 31.65 28.39 26.61 26.26

GFSFLT1_sfc_wetblb_006.txt.gz
Wetbulb
48.45 48.32 48.22 47.17 47.08 47.94 47.35 46.19 47.12 48.45 47.71 46.58 46.24 46.47 46.46 46.60 50.16 50.79 51.60 50.80 50.37 47.03 48.16 47.44 46.40 45.63 45.27 44.28 43.45 43.69 43.32 42.62
46.80 47.09 46.98 46.37 46.48 46.98 47.40 46.90 46.86 46.04 45.14 44.61 43.90 44.19 45.38 45.55 46.85 50.94 50.51 50.04 49.50 46.73 46.03 47.18 46.81 45.02 45.09 44.11 43.40 42.97 41.80 42.07
47.19 46.58 44.55 46.18 46.04 46.21 46.35 46.52 46.46 46.18 44.96 44.74 44.98 43.90 44.51 45.74 46.19 46.54 49.62 49.22 47.96 47.04 45.61 45.75 45.42 44.68 43.75 44.15 43.90 42.25 42.06 42.22
46.26 47.26 45.57 44.71 45.57 46.08 46.91 46.67 46.60 46.50 46.36 44.92 44.18 43.85 43.74 43.82 44.19 44.75 46.71 48.38 48.56 47.44 46.04 45.25 44.07 43.95 43.07 42.65 42.74 41.63 40.19 41.69
45.84 45.39 44.81 45.67 46.32 45.82 46.26 47.29 47.02 46.95 46.43 44.20 43.71 45.59 44.87 46.51 46.87 44.26 45.73 47.94 47.80 47.43 46.53 45.53 44.15 43.96 43.54 43.57 43.62 42.06 41.53 39.21
44.45 44.14 45.02 46.16 47.03 46.63 46.91 47.04 47.45 48.41 47.67 46.04 44.57 44.15 45.64 46.43 43.09 43.07 43.31 44.66 46.27 46.79 46.26 45.24 44.30 43.91 42.33 40.60 40.54 38.67 40.26 38.79
45.47 45.95 45.71 46.16 46.81 46.75 47.70 47.27 47.76 48.09 47.68 47.12 44.92 43.91 45.23 43.87 44.21 43.42 43.14 41.95 41.86 42.95 43.01 41.91 41.24 41.02 40.60 39.98 39.88 37.98 38.26 38.89
44.43 44.93 45.24 45.93 45.41 45.88 46.86 46.81 47.88 49.34 47.19 46.82 46.62 45.78 45.61 44.67 44.77 44.61 43.53 41.80 40.67 40.37 40.80 40.92 40.15 40.03 40.18 39.34 40.74 40.54 39.27 38.42
44.55 45.45 45.49 46.02 46.27 46.11 46.79 47.64 46.78 46.91 46.41 46.39 45.29 45.29 44.69 44.47 43.44 42.20 40.13 40.88 39.72 40.14 39.71 39.94 40.78 41.15 40.26 40.94 41.32 40.68 39.69 37.14
44.83 46.23 45.86 44.96 44.78 45.21 45.34 44.98 46.38 46.39 45.02 42.76 40.75 40.20 40.59 38.42 37.88 38.57 39.34 39.21 39.98 39.37 40.47 41.07 42.12 42.61 42.21 40.11 38.14 37.63 38.05 37.56
45.11 45.21 45.48 45.39 44.93 45.45 45.86 45.62 45.63 45.03 41.43 40.35 38.89 37.91 38.17 38.11 37.76 37.19 37.43 38.80 40.81 41.53 42.32 42.25 42.40 40.80 39.77 38.81 37.52 36.62 36.01 36.08
44.04 45.91 47.18 47.56 47.42 46.88 45.57 44.46 43.86 40.23 39.74 39.08 38.02 36.99 37.43 36.70 36.31 36.51 37.25 38.39 39.40 40.19 39.85 39.18 39.42 38.92 38.55 36.78 35.67 35.55 34.90 34.76
44.00 44.89 45.42 44.97 44.57 44.01 44.13 44.03 40.29 39.33 39.45 38.22 37.36 36.12 35.31 35.09 35.56 36.31 36.89 37.20 38.71 38.11 37.92 38.01 37.58 37.27 36.67 35.42 34.35 34.13 32.57 32.06
43.91 44.26 44.69 44.69 43.97 43.66 44.41 43.05 39.44 39.93 38.57 36.94 35.32 34.46 34.06 34.47 35.00 35.58 36.53 36.89 36.85 36.54 36.66 36.16 36.66 36.35 35.39 34.50 33.63 32.99 32.59 32.28
43.82 43.20 43.37 43.98 43.57 43.54 43.51 39.58 40.00 40.29 39.30 35.29 34.43 33.98 33.75 34.36 34.36 35.22 36.26 36.29 35.70 35.21 35.92 36.35 35.98 35.08 33.81 33.19 32.69 30.88 29.67 29.66
43.09 42.66 42.73 42.93 42.84 43.08 40.68 40.35 40.82 40.05 37.29 35.84 35.46 36.58 36.40 35.97 35.36 35.21 37.50 36.86 35.92 35.28 34.49 33.02 32.10 31.90 32.63 30.92 29.75 28.33 27.65 27.48
43.47 43.98 43.71 43.35 43.15 41.83 40.58 40.24 40.40 40.99 40.35 40.68 40.42 39.88 39.32 38.73 38.98 38.92 37.75 35.33 34.21 32.23 30.40 29.87 29.04 31.08 33.48 33.63 31.70 27.99 27.70 27.16
42.44 43.27 43.06 42.11 40.91 40.29 39.13 39.49 40.50 41.70 41.60 40.98 41.05 40.95 40.15 38.93 38.59 37.14 33.60 30.86 29.33 28.19 27.73 27.48 27.03 27.67 32.60 32.81 32.51 28.20 27.25 26.96
43.17 42.77 41.42 40.47 39.60 39.14 39.10 39.52 40.05 39.90 39.87 39.92 38.79 38.61 36.80 34.60 32.45 30.81 28.48 28.06 27.09 26.13 26.18 26.75 26.54 27.80 31.47 31.21 31.02 27.63 26.52 26.68

GFSFLT1_sfc_wetblb_012.txt.gz
Wetbulb
44.74 45.12 45.22 45.28 47.51 48.97 48.82 48.81 50.04 48.83 46.70 45.74 45.48 45.08 45.32 46.11 45.95 47.33 49.74 50.36 51.01 49.96 48.62 48.19 47.45 45.22 44.44 43.70 42.59 41.95 41.94 41.56
42.87 43.30 44.01 45.01 45.47 45.41 45.14 45.98 46.25 44.85 43.97 43.93 43.40 44.08 44.00 44.60 45.30 46.47 48.06 49.81 50.43 49.80 48.51 47.59 47.11 45.34 45.13 43.71 42.36 41.57 40.79 41.24
44.15 43.49 42.36 44.28 45.11 45.26 44.65 44.55 44.17 43.49 43.22 42.81 42.87 42.20 42.83 43.11 44.12 44.95 45.92 47.38 49.29 49.83 48.50 47.14 46.56 46.37 43.40 42.91 41.90 40.53 40.91 40.41
42.88 43.49 42.77 42.57 43.42 43.70 44.14 44.05 43.91 43.86 44.51 43.81 43.26 42.89 43.06 42.92 44.02 43.42 45.05 45.74 47.52 48.84 49.24 48.12 46.27 46.10 45.82 44.22 42.99 41.12 41.05 39.91
43.53 43.57 42.18 42.05 43.03 43.15 43.84 44.91 45.02 45.97 45.40 44.07 42.96 41.95 41.97 44.13 44.09 44.55 45.49 44.83 44.93 47.01 48.83 47.93 46.15 45.04 44.50 41.62 42.39 41.42 39.83 38.47
41.88 41.83 42.96 43.33 43.07 43.62 44.01 45.26 45.82 45.91 45.22 44.59 43.67 44.00 45.05 44.52 44.36 43.26 43.97 44.05 43.20 44.22 45.25 45.99 43.83 42.63 42.14 43.02 39.28 38.99 39.78 38.19
43.75 42.79 44.11 43.48 43.44 43.34 43.82 44.49 45.13 45.73 45.12 45.25 43.40 41.76 41.77 41.93 42.27 42.26 42.83 42.34 41.07 40.79 42.68 41.32 39.56 38.81 38.44 39.10 40.51 40.50 40.09 40.07
41.44 41.96 42.85 43.22 43.28 43.66 44.65 44.21 44.59 45.26 46.19 43.26 41.14 40.40 39.99 39.88 40.68 41.68 41.31 40.25 36.74 36.69 37.96 38.74 39.10 39.41 40.57 41.28 41.07 41.80 41.30 40.32
42.06 42.66 42.31 42.90 43.54 43.68 43.98 44.60 44.69 44.69 43.13 40.58 40.31 40.85 39.78 39.73 39.88 39.39 38.40 36.76 36.17 38.46 39.69 40.26 40.50 40.66 41.01 42.21 42.02 41.34 40.42 38.66
42.37 43.49 43.56 43.08 43.63 44.10 43.50 43.29 43.55 43.71 41.82 39.17 39.18 39.38 39.07 38.50 37.52 36.56 35.99 36.32 38.95 39.23 39.59 39.91 40.48 42.30 42.24 41.57 40.57 38.55 38.54 38.14
42.90 43.33 43.88 44.78 44.31 43.80 43.42 43.09 42.91 43.05 39.39 39.39 40.44 39.49 39.86 37.42 35.76 35.59 35.19 37.08 39.09 39.25 39.50 39.17 39.06 39.42 40.82 40.91 40.00 39.49 38.18 37.72
42.63 43.41 43.92 43.92 43.50 43.72 43.40 42.97 42.46 42.55 38.93 38.80 38.64 40.30 39.47 36.23 33.95 34.49 35.74 37.40 38.62 38.02 38.35 38.25 38.68 38.02 38.23 37.02 36.03 35.45 34.55 34.20
42.45 43.09 43.55 43.39 43.57 43.49 43.18 42.32 42.35 40.80 38.82 39.61 39.54 39.04 35.75 33.42 33.29 34.33 35.39 36.30 36.97 36.84 37.27 36.62 36.00 35.47 35.28 34.63 33.40 33.08 32.16 31.03
42.85 43.88 43.39 43.44 43.15 42.98 43.10 42.67 41.55 39.59 39.72 39.21 38.31 34.87 32.02 31.91 33.16 34.38 35.92 36.05 36.85 36.77 36.77 36.49 35.66 35.55 34.28 32.96 31.47 30.91 30.26 29.97
43.69 42.90 42.98 43.09 42.91 42.78 42.61 41.81 40.38 39.72 39.29 38.21 34.57 32.73 31.62 32.28 34.32 36.48 37.14 37.41 37.44 37.13 35.97 34.80 33.23 31.45 31.16 30.85 30.75 29.69 28.72 28.77
42.01 41.74 43.45 43.05 43.55 43.56 41.88 40.88 39.50 39.22 38.99 37.31 35.83 36.71 36.56 37.25 37.34 37.54 38.31 37.56 37.76 35.47 32.52 31.29 30.64 30.09 30.50 29.98 29.37 28.51 27.85 27.78
41.74 41.75 41.03 41.45 42.78 40.70 40.15 39.69 38.92 39.65 38.86 38.13 40.80 40.96 40.07 38.49 38.97 38.66 38.14 38.12 37.78 32.75 28.72 27.94 27.36 29.10 31.72 32.49 32.28 28.96 28.72 27.85
39.07 39.81 41.03 42.61 41.01 39.99 39.03 38.08 38.07 38.23 36.55 36.30 37.40 37.64 36.14 35.40 36.31 34.54 30.46 28.45 27.64 26.70 26.68 26.92 27.02 27.44 30.42 30.81 30.64 27.94 27.15 26.55
40.12 40.21 41.34 39.33 38.75 37.65 36.11 33.26 33.41 32.94 32.57 33.30 34.51 34.19 34.02 32.18 29.52 27.75 27.03 27.03 26.32 25.66 25.77 26.64 26.00 26.13 28.96 28.96 28.98 25.98 24.84 24.93

GFSFLT1_sfc_wetblb_015.txt.gz
Wetbulb
50.81 51.17 51.82 53.67 56.44 57.51 58.49 58.36 58.12 57.69 56.79 56.12 55.48 55.10 55.37 55.09 55.22 55.15 55.52 56.12 57.06 57.41 57.54 57.31 56.97 55.82 55.74 55.55 54.93 53.79 52.13 51.39
49.79 50.00 51.06 52.32 54.04 55.44 56.58 55.70 55.31 55.29 54.26 53.09 53.37 53.02 53.31 53.74 54.00 53.73 53.88 54.17 54.76 55.54 55.64 56.12 56.10 54.94 54.86 54.63 53.64 52.50 50.96 50.69
48.92 49.95 50.90 51.31 52.87 53.56 52.37 51.17 51.01 50.90 51.62 52.01 51.97 51.59 52.18 51.77 52.55 53.36 53.67 53.26 53.37 53.24 54.19 54.12 54.57 53.69 54.40 53.86 52.41 51.20 50.43 50.96
49.35 49.86 50.72 50.83 50.61 50.15 50.02 50.37 50.88 51.60 51.52 51.99 52.38 52.44 52.76 52.26 52.58 52.34 52.94 53.01 52.68 52.47 52.61 52.78 53.18 53.31 52.18 53.73 53.14 51.25 50.32 50.25
49.43 49.66 49.79 49.86 49.71 51.37 51.82 51.96 52.22 51.79 52.20 51.51 50.39 49.17 48.19 49.91 50.23 50.83 51.14 51.95 51.69 51.46 51.10 51.31 51.92 52.38 51.62 51.61 51.91 50.82 49.82 48.38
48.06 48.42 49.03 49.11 50.27 50.63 51.34 51.73 51.56 51.31 51.11 49.92 49.25 48.74 49.03 49.27 49.27 48.83 49.49 50.34 50.66 49.71 49.05 49.27 49.84 50.51 50.40 49.52 49.63 48.35 48.32 48.09
47.39 48.96 49.60 49.75 51.01 51.13 51.44 51.18 51.12 51.58 51.34 49.41 48.56 48.00 47.67 47.68 47.97 47.66 48.04 48.00 48.11 46.74 46.86 46.97 46.74 46.04 45.70 46.00 45.79 45.09 44.56 44.29
47.70 48.07 48.93 49.66 50.08 50.62 50.72 50.67 50.20 50.60 50.27 48.05 47.77 47.72 47.87 47.15 47.16 46.85 46.21 45.61 45.84 44.41 45.14 45.45 45.45 45.78 45.74 45.56 43.91 42.18 40.76 39.42
47.66 47.82 48.72 49.25 49.52 49.83 50.37 49.73 49.47 50.00 49.62 48.34 47.20 48.27 47.43 46.71 46.19 45.58 44.30 43.76 43.88 45.01 45.30 45.62 45.72 46.11 45.95 44.15 41.76 40.84 39.62 38.68
47.83 48.59 49.23 49.81 49.62 49.51 49.36 49.11 48.95 49.07 48.99 47.38 46.74 46.80 46.62 45.76 45.60 44.51 42.99 43.12 43.94 45.12 46.11 45.92 45.08 44.60 43.68 42.68 41.67 39.11 38.96 38.89
48.68 49.48 49.77 49.81 50.00 49.47 49.20 50.21 48.62 48.73 48.69 46.52 45.94 45.98 45.85 45.27 43.64 41.84 41.82 43.04 44.68 44.99 44.77 43.66 43.52 43.28 43.18 42.78 42.81 42.36 41.09 40.68
48.66 49.04 49.57 49.54 49.23 49.73 49.47 49.06 48.23 47.99 47.18 45.40 45.50 45.12 44.19 41.60 40.25 40.66 41.57 43.64 43.43 42.15 41.48 41.26 40.97 40.23 40.60 40.66 40.53 39.96 39.58 39.44
48.26 48.50 48.66 48.79 48.99 49.01 48.62 48.81 47.77 46.40 44.91 44.94 44.44 42.77 39.98 39.06 39.46 40.46 41.06 40.53 41.02 41.11 41.39 40.46 39.10 40.09 39.46 38.09 37.06 37.35 36.58 35.97
47.95 48.01 47.70 47.76 47.40 47.34 47.60 47.34 46.08 45.21 44.72 43.97 41.63 39.48 38.49 38.50 40.56 41.56 41.91 41.69 41.76 41.23 40.18 38.89 37.58 36.54 35.93 35.87 35.43 35.23 35.24 35.15
46.96 46.78 46.22 45.49 45.49 45.39 45.22 45.04 45.04 44.18 43.26 42.44 40.44 39.44 38.62 40.69 41.62 41.68 41.70 41.55 40.95 40.58 39.34 37.12 35.53 34.60 34.13 34.18 34.19 34.16 34.29 33.92
44.72 43.14 43.01 43.59 44.05 44.44 43.95 43.88 43.42 43.16 42.84 42.06 41.33 41.26 41.27 40.85 40.60 39.88 40.61 40.42 40.28 40.64 37.87 34.27 33.52 32.99 33.00 33.57 33.49 33.22 32.75 32.38
42.07 41.83 42.10 42.50 43.16 41.89 41.55 41.72 41.77 41.61 40.51 39.59 38.40 38.22 38.56 38.79 39.37 39.97 39.63 37.82 34.96 33.64 32.62 31.87 31.83 31.53 31.02 31.38 31.38 31.39 31.00 30.27
39.50 40.03 41.50 42.68 41.71 40.81 40.43 40.03 40.23 38.62 37.91 37.60 37.79 38.75 38.06 37.28 36.04 35.01 33.77 33.08 32.92 32.30 31.93 31.82 31.36 31.37 29.51 29.85 29.56 29.96 29.65 29.21
39.82 40.91 42.25 41.65 40.70 40.83 38.65 37.63 37.60 36.90 36.86 37.54 37.87 35.66 34.05 33.85 33.67 32.81 32.31 32.20 31.45 31.17 31.23 31.30 30.37 29.99 28.35 28.40 28.51 29.89 29.49 29.10

GFSFLT1_sfc_wetblb_018.txt.gz
Wetbulb
59.63 59.30 58.22 58.95 60.91 62.47 64.84 64.68 62.91 62.52 63.19 62.49 61.18 60.30 60.25 60.47 59.82 59.74 59.28 59.05 59.17 59.31 59.25 59.75 60.34 59.49 59.00 58.60 58.47 58.71 57.81 56.85
56.02 56.71 57.46 58.28 60.27 60.87 61.26 60.92 59.55 60.84 60.76 58.18 58.34 57.69 58.00 58.23 58.87 58.53 58.90 58.65 58.24 58.43 57.88 58.10 58.46 58.01 58.12 58.56 58.02 57.32 56.82 57.37
55.26 56.66 57.64 57.99 58.07 57.96 57.24 56.23 55.89 56.40 57.99 57.81 57.40 56.95 57.82 58.07 58.56 58.02 57.57 56.81 56.70 55.96 56.33 56.03 56.40 56.07 56.55 57.00 57.02 56.09 56.36 56.68
54.02 54.76 55.83 56.61 56.19 56.26 55.76 56.22 56.76 57.11 57.05 58.02 57.92 58.09 57.78 55.96 54.58 54.36 55.12 54.99 54.91 55.17 55.04 55.12 55.19 55.17 54.32 55.34 55.63 55.11 53.70 55.55
53.64 54.29 54.83 55.41 56.07 57.05 56.72 56.49 56.36 56.27 56.44 55.63 54.77 53.72 52.37 53.28 53.95 54.11 53.86 54.23 53.59 53.65 53.64 53.87 53.96 54.04 53.65 54.06 54.20 54.21 53.97 52.21
53.12 53.65 54.43 55.27 56.19 56.42 56.98 56.27 55.91 55.90 55.24 54.28 54.16 53.24 53.94 53.92 53.53 53.00 53.42 53.08 52.83 52.41 52.47 52.38 52.90 53.07 53.10 52.34 51.75 51.91 51.63 49.70
52.92 53.86 54.71 55.15 56.48 56.49 56.39 55.34 54.54 55.03 55.18 54.22 53.36 52.58 51.33 51.00 51.52 50.70 50.53 50.78 50.95 51.40 51.12 51.38 51.56 51.23 50.86 49.85 47.10 45.21 44.65 44.31
53.05 53.08 53.64 54.29 55.04 55.32 54.98 54.80 53.86 54.48 54.05 52.66 51.23 52.32 52.22 51.14 50.50 49.60 49.02 48.76 49.07 49.70 49.94 50.25 51.41 49.78 47.17 46.36 45.12 43.38 41.49 39.85
52.49 52.77 53.86 54.17 54.11 54.36 54.51 54.10 53.18 52.82 52.58 51.96 52.56 52.37 51.97 51.07 50.08 48.95 48.16 48.14 48.59 49.24 49.47 50.09 49.27 47.98 47.14 45.22 43.61 42.16 40.68 40.76
52.01 53.16 53.72 54.08 54.19 54.17 54.22 54.10 54.06 53.57 52.82 53.15 52.42 51.96 50.96 49.34 48.88 48.37 47.71 48.14 47.74 48.56 48.30 47.19 47.67 46.63 45.86 45.01 43.84 43.33 43.49 42.60
52.44 53.10 53.55 53.86 54.12 54.62 54.97 54.12 53.16 53.28 52.93 52.35 50.94 50.59 49.60 48.44 47.16 46.02 46.17 46.88 47.73 47.29 46.74 45.96 44.42 43.79 43.28 42.65 42.10 42.31 42.17 41.89
51.96 52.52 53.11 53.14 53.85 53.82 52.89 52.76 52.54 51.75 51.28 50.57 49.68 48.62 47.20 45.99 45.44 45.44 45.88 46.67 46.13 45.27 44.23 43.71 42.90 42.23 41.98 42.22 41.12 41.03 40.27 40.50
51.52 52.18 52.41 52.52 51.94 51.63 51.13 50.83 49.97 49.97 49.77 48.61 47.76 46.67 45.41 45.08 44.30 44.53 45.36 44.58 44.80 44.02 43.53 42.29 42.23 41.50 40.98 39.85 38.76 39.46 38.52 38.07
51.04 51.42 51.13 50.40 49.80 49.03 48.92 48.94 48.74 48.40 47.43 46.95 46.40 45.40 44.79 44.12 44.41 44.56 44.65 44.18 43.33 43.58 42.40 41.05 40.11 40.20 39.82 39.49 39.14 38.31 38.08 38.03
49.96 49.74 49.42 49.17 48.00 47.79 47.78 47.50 47.15 46.50 46.49 45.86 45.19 44.73 44.64 41.88 42.95 43.21 42.82 42.67 41.93 41.74 41.34 40.76 39.75 37.83 36.99 37.06 36.86 36.89 37.00 36.79
47.67 46.92 44.95 45.99 46.37 47.09 46.60 45.69 45.61 45.96 45.12 44.38 43.01 42.50 41.68 42.58 42.56 42.60 42.53 42.23 41.42 40.37 38.87 37.97 37.30 36.64 35.80 34.50 34.66 34.68 34.92 34.89
45.08 43.73 43.51 44.45 45.53 45.40 44.13 44.37 44.33 44.63 43.33 42.51 42.15 42.17 42.04 41.90 41.31 40.53 39.72 38.97 38.68 38.19 37.29 36.88 36.27 35.92 30.55 30.34 31.11 32.95 33.55 33.61
43.40 43.19 43.66 45.15 45.48 43.80 43.70 43.56 43.63 42.90 42.36 41.43 41.34 41.34 39.97 39.21 38.99 38.20 37.26 37.07 37.25 36.74 36.38 36.12 35.42 35.52 29.93 29.79 29.32 31.73 32.33 33.15
43.08 43.76 44.59 45.72 44.71 44.25 44.14 43.56 42.50 41.98 41.40 40.65 40.05 39.06 38.16 37.87 37.07 36.38 36.42 36.65 35.88 35.58 35.37 34.98 34.42 34.08 29.85 29.04 28.38 31.35 32.51 32.48

GFSFLT1_sfc_wetblb_021.txt.gz
Wetbulb
62.10 61.38 61.78 61.13 63.35 63.23 64.52 66.48 66.26 64.52 64.26 63.39 61.68 61.30 60.75 61.35 60.57 60.23 60.61 60.52 60.52 60.03 59.73 60.11 60.23 59.24 59.50 60.05 60.35 59.96 59.34 58.88
59.48 59.47 60.11 61.37 62.94 63.73 64.45 64.17 62.41 61.80 61.16 59.12 58.85 58.63 59.23 59.40 59.81 60.18 60.04 59.50 58.99 58.65 57.85 58.01 58.36 56.83 58.21 59.21 58.65 58.21 57.93 59.42
57.48 58.68 59.70 59.98 59.74 60.07 59.66 59.23 58.72 58.83 59.30 58.53 58.85 58.68 58.85 59.17 59.74 59.13 58.78 57.61 56.99 56.27 56.50 55.59 56.99 55.55 57.05 57.41 57.55 55.84 56.71 58.12
55.73 56.92 58.20 59.12 58.58 58.54 58.33 58.46 58.54 58.56 58.70 58.92 58.50 58.67 58.66 57.34 57.07 57.05 57.52 57.38 56.21 55.34 55.32 54.72 55.19 55.69 54.57 56.04 55.93 54.99 53.39 55.28
55.84 56.17 56.80 57.72 58.02 58.77 58.37 58.06 57.83 57.91 58.04 56.75 56.25 55.33 54.50 56.18 56.63 57.05 56.35 56.53 55.52 54.63 53.90 53.64 53.68 53.95 54.19 54.32 53.59 53.61 53.35 51.18
55.18 55.80 56.62 57.35 58.25 58.51 58.49 57.79 57.26 57.38 57.04 56.43 55.93 55.09 55.49 55.83 54.78 54.04 54.16 53.87 53.66 52.76 52.84 53.14 52.36 52.40 52.77 52.54 51.92 50.89 50.57 49.13
55.16 55.79 56.38 57.04 58.19 58.08 57.83 57.18 56.88 57.09 57.12 56.58 55.21 53.90 53.22 52.41 52.49 51.70 51.45 51.58 51.57 51.98 51.37 51.80 51.77 51.84 51.35 49.84 48.14 46.21 45.17 44.80
54.80 54.96 55.46 55.81 56.18 56.85 57.16 56.77 55.91 56.45 55.60 55.06 54.62 53.73 53.28 52.35 51.74 50.86 49.97 49.28 49.26 49.61 50.34 50.66 50.58 50.09 48.19 47.40 46.23 45.65 44.00 41.59
53.85 54.41 55.01 55.70 56.04 56.70 56.55 56.15 55.72 55.83 55.86 55.18 54.80 54.74 53.07 52.25 51.41 50.20 48.63 48.06 48.44 49.70 49.92 50.03 48.41 48.01 47.02 46.19 45.64 44.51 44.52 43.70
53.70 54.56 55.32 55.58 55.60 55.79 55.99 55.64 54.92 54.81 54.84 54.81 53.89 53.03 52.09 50.74 49.83 48.38 47.64 48.18 47.90 48.80 49.01 47.64 47.22 45.68 45.10 44.44 44.02 43.74 43.61 43.36
53.72 54.12 54.63 54.94 54.99 55.42 55.80 54.92 53.88 53.35 52.69 52.58 51.93 51.10 51.04 49.39 47.95 47.06 47.00 47.55 48.11 47.19 46.84 46.12 44.49 44.37 43.92 43.62 43.17 43.29 42.37 42.60
52.93 53.01 53.20 54.19 54.27 53.90 53.51 53.07 52.50 51.61 51.57 51.13 50.14 49.25 48.72 47.68 46.79 46.58 46.64 46.79 45.97 45.29 44.99 43.91 43.89 42.80 42.58 41.98 41.43 41.19 40.85 41.18
51.80 52.01 52.39 52.22 52.15 52.42 51.78 51.46 50.52 50.36 49.79 48.80 47.92 48.16 47.69 47.00 46.26 45.98 45.82 44.46 45.10 44.93 44.16 42.52 42.10 41.67 41.68 40.73 40.04 39.83 39.01 38.75
51.20 51.08 50.89 50.54 50.88 50.99 49.82 49.77 49.02 48.35 47.52 47.09 47.08 47.03 46.66 45.45 45.19 45.19 45.04 44.69 44.51 44.28 43.79 42.44 41.66 41.34 39.98 39.56 39.00 38.19 37.79 37.66
49.54 50.31 50.10 50.15 49.32 48.59 48.52 48.19 47.53 46.89 46.65 46.09 45.44 45.22 43.37 43.97 44.49 44.11 43.15 43.31 42.30 41.81 41.45 40.53 40.03 39.27 38.77 38.52 37.80 36.64 36.51 36.68
49.26 48.28 48.33 47.67 46.86 47.61 47.86 46.90 46.71 46.18 45.20 44.84 44.57 43.96 43.25 42.62 42.73 42.18 41.72 41.52 40.51 40.02 39.46 39.23 39.01 38.49 37.52 36.13 35.10 34.16 34.11 34.59
46.27 45.31 46.14 45.55 45.95 46.92 46.18 45.86 45.37 45.31 44.31 43.84 44.15 43.22 41.85 41.50 41.05 40.63 40.27 39.23 39.04 38.97 38.32 38.09 37.75 37.45 30.86 30.43 30.84 32.25 32.25 32.80
42.94 44.17 45.29 45.61 46.48 46.55 45.20 45.38 45.55 44.33 43.54 43.64 42.67 41.30 40.41 40.05 39.84 38.93 38.16 38.07 38.28 37.56 37.50 37.38 36.55 36.74 30.41 30.30 30.07 31.76 30.98 32.02
45.20 45.47 45.40 45.82 46.62 46.79 46.07 45.23 44.65 43.90 43.41 42.78 41.86 40.84 39.42 39.50 38.63 37.91 37.63 37.68 37.07 36.76 36.60 36.41 35.71 35.27 31.14 29.98 29.43 30.90 31.17 31.64

GFSFLT1_sfc_wetblb_024.txt.gz
Wetbulb
61.21 60.52 61.06 62.05 63.32 63.81 64.31 65.61 64.99 63.98 63.23 61.86 60.64 59.97 59.75 59.84 59.25 59.03 59.13 58.16 58.79 57.56 56.64 56.77 57.37 55.50 54.72 54.70 54.76 54.67 54.51 54.42
58.55 59.90 60.70 61.50 63.25 62.42 62.58 60.77 61.14 60.22 59.63 57.49 57.37 56.98 57.75 57.72 58.30 59.12 58.02 57.92 56.54 55.54 54.79 54.36 54.26 53.40 53.45 53.70 52.67 51.46 51.84 52.91
57.35 57.97 58.46 58.58 58.61 58.98 58.93 58.53 58.47 58.01 57.60 57.13 57.17 56.85 57.43 57.42 57.98 56.78 57.69 56.57 55.77 54.73 53.45 52.49 52.40 51.64 51.15 51.10 50.79 50.67 50.65 51.27
55.62 56.68 57.26 57.72 57.44 57.82 57.57 57.77 57.74 57.64 57.43 57.13 56.53 56.46 56.74 55.43 55.40 55.23 56.57 55.84 54.79 54.75 53.86 52.87 51.50 50.87 49.52 49.40 49.55 48.81 48.02 49.24
55.25 55.85 56.22 56.75 57.26 58.29 57.80 57.71 57.35 57.15 56.85 55.47 55.24 54.12 53.00 53.89 54.26 53.69 54.25 54.81 53.54 52.09 51.39 50.94 50.46 50.30 48.82 49.16 50.51 48.61 47.28 45.13
54.61 55.08 55.93 56.71 57.84 57.78 57.82 57.41 56.90 57.10 56.54 56.36 54.64 53.13 52.83 52.81 52.50 52.01 51.20 51.76 51.14 50.72 49.92 48.91 49.23 49.09 48.92 48.21 46.33 44.84 44.24 42.69
54.72 55.75 56.67 56.45 58.11 57.61 57.64 56.70 56.49 57.03 55.72 55.16 53.58 52.17 51.79 50.53 50.61 49.63 49.36 49.01 48.59 48.53 48.97 48.23 48.33 48.47 48.24 47.17 46.31 43.67 44.09 42.66
54.36 54.31 54.61 55.65 56.01 56.71 56.63 56.15 55.15 55.83 55.60 55.22 54.47 53.18 52.99 51.22 49.48 48.30 46.91 46.06 45.92 45.92 47.07 47.35 47.34 47.64 46.48 45.53 44.30 43.77 43.30 39.61
54.71 54.94 54.94 55.18 55.90 55.68 55.70 55.27 54.27 54.18 54.38 52.90 52.90 52.43 50.96 49.45 48.50 46.88 45.45 45.15 45.24 46.44 47.31 47.19 47.19 46.87 45.58 44.69 44.14 43.68 42.61 41.98
53.57 54.44 55.01 54.91 54.82 54.56 54.55 54.07 53.39 53.24 52.62 52.37 51.79 50.71 49.88 48.26 47.25 45.99 45.10 45.17 45.75 45.80 45.90 46.04 44.49 43.30 44.33 43.56 42.38 41.85 41.39 42.67
53.07 53.17 53.38 53.78 53.83 53.97 54.16 52.72 51.58 51.61 51.02 50.19 49.42 48.84 48.34 47.07 45.83 45.16 44.78 44.93 44.96 44.45 44.18 43.49 43.41 43.99 42.76 42.36 41.64 41.06 41.59 40.66
52.27 52.50 52.73 53.09 53.45 53.24 51.74 50.70 50.36 49.63 48.81 48.23 47.04 46.83 47.06 46.31 45.53 44.88 44.86 44.39 43.79 43.58 43.62 43.25 42.72 41.93 41.45 40.62 40.32 39.73 38.68 37.51
51.20 51.41 51.87 51.35 51.50 51.08 50.24 49.57 49.07 47.95 47.32 46.61 45.99 46.35 45.87 44.44 43.83 43.59 43.89 43.65 44.26 43.33 42.65 41.94 41.62 41.02 40.61 39.61 37.98 37.57 36.97 35.97
50.42 50.70 50.41 49.74 49.87 49.50 48.95 48.54 47.79 47.01 46.17 45.13 44.78 44.65 43.66 42.14 42.38 43.19 42.94 42.52 41.84 41.24 40.58 39.20 38.86 38.54 37.76 36.41 35.94 35.39 33.93 33.51
49.55 48.89 48.65 48.68 48.59 47.52 47.35 47.51 47.00 46.22 45.05 44.17 43.66 43.57 42.30 41.71 42.15 42.12 41.70 41.32 40.06 38.65 38.19 38.05 37.86 37.09 36.79 36.38 35.47 33.02 32.02 31.96
47.42 46.74 46.73 46.59 46.28 46.30 46.67 46.95 45.78 45.80 43.96 43.46 42.77 43.34 42.49 41.66 41.26 41.26 40.72 40.27 38.72 37.93 37.13 36.89 36.74 36.36 34.43 32.28 32.07 30.97 30.11 29.88
45.84 45.17 45.75 45.67 45.80 45.43 46.42 45.74 45.14 45.27 43.69 42.82 43.39 42.91 41.87 41.05 40.70 40.37 39.11 37.65 36.94 36.65 35.86 35.69 34.89 36.24 31.49 31.28 30.06 28.33 29.73 29.18
44.80 45.08 45.76 45.24 45.01 45.23 44.36 45.27 45.42 44.28 43.45 43.51 43.40 42.64 41.24 40.21 39.81 39.00 36.65 35.67 35.57 34.88 34.63 34.62 33.78 33.53 31.73 31.23 30.49 28.49 28.17 28.00
45.32 45.47 45.00 44.86 44.43 44.30 45.04 45.37 44.59 43.94 43.06 42.27 42.57 41.93 40.33 39.50 38.93 37.32 35.85 35.18 34.18 33.68 33.68 33.89 32.27 32.85 33.38 32.14 30.45 27.45 26.56 26.75

GFSFLT1_sfc_wetblb_027.txt.gz
Wetbulb
56.56 57.13 58.00 58.01 58.86 58.72 58.44 58.41 58.23 59.05 57.77 56.87 55.69 54.48 54.40 54.52 54.09 54.54 54.64 54.86 54.35 52.22 52.20 51.99 51.57 50.70 50.48 50.40 49.55 49.81 50.03 50.72
54.82 55.05 55.14 55.12 54.73 55.30 54.77 54.31 53.50 53.81 52.44 51.41 51.31 51.07 51.91 52.59 53.71 53.72 53.49 53.52 53.12 52.10 51.60 50.03 49.83 49.24 48.75 48.64 48.12 47.80 48.62 48.85
54.05 53.93 53.49 52.94 52.14 52.73 53.19 53.27 53.04 52.78 51.98 51.54 51.90 51.39 52.07 52.48 53.49 52.81 53.51 52.63 52.14 52.15 50.11 49.69 49.08 48.61 47.58 46.88 46.40 45.86 46.34 47.08
52.53 52.86 51.13 51.17 51.03 51.22 52.37 52.57 52.74 52.33 51.85 51.69 51.51 51.62 50.73 50.34 50.62 50.55 51.17 51.09 50.27 48.71 48.06 47.58 46.84 47.66 46.22 45.52 45.88 45.02 44.01 44.78
52.51 51.58 50.84 51.18 51.07 51.74 52.08 52.50 52.00 52.83 52.01 51.05 49.92 48.42 47.39 48.59 48.59 48.90 48.96 48.78 48.31 48.32 47.41 46.18 45.96 46.74 45.46 46.25 45.21 43.02 42.14 39.87
50.06 50.63 51.62 51.72 51.76 51.15 51.36 51.84 52.12 52.16 52.06 51.20 50.13 48.20 48.94 48.98 48.24 47.29 46.54 46.87 46.61 46.24 46.28 45.51 45.01 45.19 45.49 43.54 42.70 44.31 43.86 42.30
50.09 51.05 52.03 51.35 51.35 50.89 50.91 51.20 51.82 51.80 51.15 50.61 49.26 48.16 48.28 47.24 46.02 44.54 44.33 44.15 44.26 44.54 44.82 44.14 44.98 44.76 44.28 45.66 44.72 43.67 43.04 42.21
48.11 48.78 49.36 50.35 49.23 50.07 50.78 51.02 50.97 51.15 50.52 49.39 48.63 48.22 47.84 47.01 46.15 44.74 43.00 42.07 42.08 41.96 43.98 44.14 44.61 44.87 44.93 44.31 43.69 41.53 41.77 39.55
47.84 48.83 48.92 49.32 49.83 49.55 49.71 50.31 50.19 49.82 49.39 48.54 47.42 46.61 45.97 45.10 43.84 42.60 41.77 40.88 41.32 42.24 43.17 42.75 41.77 41.93 42.01 42.36 42.21 42.55 40.88 39.33
48.48 49.11 48.59 48.29 48.62 49.34 48.84 47.76 48.21 48.25 47.32 46.23 45.55 45.51 44.78 42.89 41.90 41.30 41.19 41.21 43.16 41.59 41.33 41.13 40.97 40.95 41.28 43.05 41.26 39.14 38.96 38.15
47.27 47.51 47.98 48.29 48.27 48.47 47.76 47.17 46.60 45.34 44.54 44.06 43.87 42.91 43.02 42.32 41.65 41.29 41.53 41.38 41.52 40.85 41.08 41.30 41.16 41.19 40.86 39.95 39.31 38.79 38.08 36.91
46.60 47.28 47.80 47.80 48.37 47.62 46.36 45.64 44.93 43.36 43.15 42.81 41.83 42.00 42.04 41.40 40.53 40.10 40.88 40.88 41.25 41.11 41.18 41.13 40.64 39.89 39.48 38.61 37.90 38.28 37.94 35.88
46.17 46.62 46.34 45.49 45.57 45.52 45.08 44.45 43.75 42.67 42.57 41.62 41.19 41.95 40.90 39.78 39.43 39.54 40.08 39.80 40.90 40.06 38.94 37.61 39.02 39.23 38.59 37.80 36.90 35.38 32.34 30.99
45.01 44.91 44.38 44.80 44.87 44.89 43.36 43.40 42.24 42.32 41.51 40.58 40.19 40.29 39.45 38.29 38.85 39.79 40.00 39.14 38.46 37.28 36.20 34.90 35.05 35.05 34.46 33.69 32.96 31.66 30.63 30.23
44.01 43.28 43.13 43.53 44.61 42.92 42.42 42.67 42.28 42.29 41.83 40.20 39.49 39.33 39.14 38.22 38.38 38.59 38.58 38.20 36.81 34.94 34.63 34.99 35.24 34.72 33.79 32.86 32.22 30.10 29.16 29.51
43.13 42.15 42.08 42.82 41.80 41.58 42.16 42.62 43.03 42.29 40.76 41.21 39.55 40.34 39.35 39.26 39.05 38.26 38.17 37.40 35.84 34.70 34.31 33.91 33.66 33.64 32.19 29.28 28.56 27.54 27.14 27.50
42.85 42.85 43.29 43.08 41.71 41.21 41.50 41.20 41.92 42.33 40.96 40.45 41.19 40.05 40.32 39.21 37.97 37.67 37.58 34.68 33.59 33.29 32.62 32.67 31.85 33.36 31.97 31.48 29.25 26.40 27.10 26.81
41.69 42.56 43.16 41.72 40.54 40.94 39.19 39.66 41.14 41.13 40.83 41.32 40.05 40.61 39.52 40.12 39.70 38.55 36.08 32.33 31.79 31.57 31.67 32.63 31.08 29.25 32.04 31.44 30.94 27.35 26.17 25.26
42.11 41.80 41.04 40.68 40.33 39.61 38.96 39.08 38.58 38.86 39.01 39.02 40.02 39.65 38.90 39.08 39.41 37.58 33.69 32.84 30.65 30.23 31.12 31.49 29.23 31.21 33.20 33.47 31.92 26.85 26.51 26.27

GFSFLT1_sfc_wetblb_030.txt.gz
Wetbulb
53.62 53.97 55.55 56.14 56.82 58.16 58.15 58.63 58.98 59.86 57.12 54.91 53.54 53.02 52.31 53.00 52.61 52.37 52.91 52.17 52.15 50.85 50.60 49.72 49.12 48.46 48.30 47.22 46.32 46.78 46.38 46.35
52.65 53.04 53.00 53.40 53.26 53.43 53.98 54.01 52.57 52.16 51.67 51.30 51.08 50.10 50.54 51.26 51.32 51.98 51.61 51.18 51.33 49.22 48.24 47.93 47.86 47.31 46.63 46.40 45.98 45.11 44.66 45.50
51.44 51.44 50.70 51.12 52.20 51.70 51.73 51.46 51.00 51.20 50.54 49.80 50.13 49.70 50.31 50.02 49.87 49.87 49.71 48.62 48.42 47.67 45.95 45.89 45.60 46.39 45.63 44.63 44.48 44.50 44.64 43.39
50.07 50.73 50.41 50.07 49.42 49.85 50.84 50.81 50.83 50.37 50.75 50.39 49.81 49.34 48.64 47.88 47.69 47.24 47.05 47.15 46.77 46.09 45.23 44.65 44.35 45.16 44.14 43.84 43.27 42.84 41.33 41.40
50.39 49.61 49.28 49.41 48.89 49.77 50.12 50.65 50.66 51.07 50.73 49.84 48.80 47.17 46.06 46.57 46.38 45.59 45.33 45.64 45.25 45.42 44.49 43.75 43.23 43.91 44.10 43.87 43.63 41.35 42.40 41.21
49.10 49.65 50.18 50.06 49.89 49.15 49.35 50.67 51.07 50.69 50.45 49.54 48.20 47.03 46.90 46.60 45.32 43.90 43.79 44.29 44.68 44.40 44.49 44.21 44.20 44.33 43.33 42.53 41.90 41.71 41.10 39.65
49.07 49.57 50.36 49.49 49.17 48.63 48.79 49.52 49.35 49.98 49.16 48.22 47.49 46.37 45.50 44.12 43.49 42.05 42.41 42.26 42.30 42.70 44.28 43.57 43.31 42.77 42.39 41.49 41.13 40.35 39.44 38.94
48.00 48.82 48.74 48.82 47.53 48.25 49.09 49.08 48.65 49.16 48.38 47.07 46.19 45.27 44.22 44.15 43.58 41.05 40.63 40.10 39.71 40.60 42.24 42.04 42.39 41.99 41.38 40.77 39.98 39.21 38.71 38.36
46.31 46.17 46.87 47.63 47.56 47.38 47.69 47.90 47.93 47.79 47.26 45.55 45.16 45.61 43.86 42.81 41.52 40.60 39.82 39.43 39.56 40.31 41.30 40.74 40.40 40.46 40.26 39.64 39.07 39.36 39.38 37.69
46.03 46.53 46.38 46.62 47.15 47.20 45.54 45.83 46.16 45.45 44.83 43.43 42.84 43.41 42.42 41.15 40.46 40.47 39.92 40.08 41.79 40.27 40.10 40.08 40.25 40.23 39.84 39.04 38.12 37.66 37.42 36.83
45.61 45.86 46.38 46.51 46.18 46.01 45.01 44.67 43.69 42.98 42.32 42.15 41.97 41.74 41.79 40.74 40.20 40.08 39.95 39.87 40.24 39.70 39.37 40.09 39.89 39.78 39.51 38.23 36.93 36.83 35.82 35.72
44.68 44.59 44.67 44.49 44.90 44.06 43.65 43.09 42.30 41.76 41.43 40.96 40.76 40.90 40.78 40.19 39.03 38.92 39.35 39.38 39.40 39.54 39.43 38.82 39.35 38.52 38.01 36.93 36.37 36.29 35.03 32.58
43.06 43.38 43.38 43.09 43.00 42.67 43.28 42.57 42.01 41.13 41.13 40.73 39.88 41.02 40.28 39.26 38.49 38.57 38.44 38.19 39.33 39.37 37.63 34.96 34.88 34.95 34.21 33.96 33.33 31.16 29.68 29.08
42.41 42.37 42.58 42.48 42.38 42.32 41.61 41.81 40.85 41.00 40.66 39.57 38.92 38.79 39.29 38.13 37.55 37.98 38.72 38.65 38.07 37.98 35.70 33.92 34.05 33.88 32.56 31.46 30.91 30.03 29.16 28.98
42.42 41.90 41.45 41.63 42.10 40.70 40.72 41.35 41.20 41.07 40.28 38.87 38.17 38.52 37.59 37.79 37.30 38.09 39.45 39.42 38.99 36.47 34.99 34.81 34.27 32.77 31.68 30.98 29.88 27.82 27.16 27.82
41.90 41.48 40.88 41.16 40.83 39.99 39.60 39.23 39.94 40.28 39.65 39.57 38.60 38.78 38.62 39.12 37.47 38.65 39.48 40.05 38.98 36.57 34.69 33.57 32.71 31.43 31.21 27.94 28.08 27.36 26.85 26.70
41.00 40.87 41.38 41.73 40.48 38.80 38.34 38.38 38.75 39.56 39.45 39.26 39.78 40.21 39.50 38.57 38.62 39.05 38.99 38.78 38.44 34.19 33.07 32.33 31.15 31.87 32.29 31.95 29.72 26.58 27.03 26.36
40.26 40.49 40.23 39.24 37.52 38.06 36.67 36.96 37.79 37.14 37.96 38.51 38.72 38.58 38.07 37.96 38.56 38.42 38.56 37.44 33.64 32.45 31.83 31.60 29.86 28.50 32.51 32.77 33.39 28.57 26.52 25.54
39.72 38.57 37.16 36.85 36.44 36.23 36.36 36.39 35.85 35.89 36.50 37.17 37.75 37.68 37.20 37.17 37.23 37.02 34.32 33.32 33.47 33.05 31.21 30.27 29.34 30.43 32.51 33.20 32.56 27.85 26.00 26.16

GFSFLT1_sfc_wetblb_033.txt.gz
Wetbulb
51.43 52.69 55.24 55.68 56.09 57.48 58.13 58.94 59.85 58.92 54.72 52.99 51.33 51.44 51.04 50.86 50.17 49.84 49.74 49.20 48.53 47.17 46.84 46.78 48.31 46.83 46.42 45.70 44.83 45.09 44.25 44.24
51.29 51.87 52.30 52.91 53.58 54.88 55.93 55.00 52.54 51.86 52.19 53.15 51.15 48.55 48.23 48.55 48.50 48.45 47.62 47.71 48.65 47.62 46.20 44.91 45.38 45.17 44.64 44.73 44.12 43.57 43.76 42.64
49.52 50.68 51.17 52.13 52.88 50.90 50.33 49.91 50.32 50.02 50.01 48.99 49.03 48.35 48.04 47.31 46.79 46.66 46.88 47.42 46.26 45.38 43.75 43.68 44.27 44.66 43.18 42.81 43.62 43.41 43.04 41.53
49.29 50.38 50.14 49.18 48.86 48.98 49.34 49.24 49.73 50.03 50.03 49.40 48.71 48.24 47.47 45.93 45.50 44.57 45.03 45.18 45.09 44.04 43.59 43.25 43.00 43.20 42.76 42.48 41.83 40.97 40.29 40.11
50.15 48.62 47.05 47.07 47.46 48.10 49.04 49.48 49.22 49.84 49.62 48.89 47.59 46.67 45.27 45.28 44.23 43.79 43.09 44.07 43.47 43.94 44.13 43.80 43.75 43.78 42.59 42.37 42.55 40.01 39.70 37.98
48.90 49.48 49.03 48.88 47.72 47.07 47.61 48.75 49.46 49.61 48.97 48.30 47.08 46.63 46.21 45.26 43.72 42.49 42.76 42.61 42.95 44.22 44.21 43.21 42.68 42.75 41.60 40.68 39.74 39.43 39.12 37.78
48.34 49.41 49.21 48.12 47.64 47.04 47.03 47.66 48.23 48.53 48.11 48.01 47.30 45.81 44.20 42.82 41.68 42.79 41.95 41.04 40.87 42.14 42.81 42.07 41.76 41.37 40.60 39.95 39.33 38.69 37.43 37.18
47.10 48.07 48.96 49.39 48.18 47.03 46.94 47.26 46.97 47.55 46.64 45.67 45.35 44.27 43.19 42.28 41.47 40.11 39.45 38.89 38.79 39.63 40.88 40.65 40.93 40.71 40.08 39.38 38.57 37.58 37.03 36.22
48.12 48.60 48.22 47.50 46.66 46.23 45.76 47.08 46.62 46.51 44.88 44.42 44.66 43.92 42.55 41.66 40.81 39.90 39.03 38.69 38.89 39.47 40.07 40.06 39.77 39.61 39.38 38.76 37.86 37.51 37.11 35.66
44.97 45.24 45.33 45.46 45.56 44.92 44.19 45.31 44.75 44.77 43.14 42.44 42.83 43.04 41.73 41.00 39.82 39.23 39.15 39.26 40.37 39.40 39.45 39.24 39.01 39.08 38.96 37.97 37.01 36.35 35.62 34.97
43.75 43.83 44.35 45.17 44.99 44.39 43.89 43.72 42.91 41.86 41.49 40.93 40.96 40.47 41.31 40.42 39.51 39.42 39.19 38.88 38.98 39.05 38.48 38.88 38.62 38.51 38.05 37.12 35.76 35.59 34.37 33.97
42.70 43.02 43.60 43.37 43.06 41.95 41.83 41.41 41.36 40.50 40.23 40.21 39.86 40.24 40.09 39.41 38.90 38.72 38.63 38.37 38.33 38.79 39.39 38.08 38.22 38.43 37.51 36.47 35.18 34.48 32.19 29.26
42.34 42.84 42.64 42.20 41.19 41.12 41.75 41.98 40.94 40.47 40.05 39.53 38.42 39.49 39.66 38.88 38.22 38.39 38.27 37.08 38.52 38.55 37.55 35.94 35.38 35.57 34.88 32.34 31.79 30.48 29.13 28.10
41.19 41.77 40.84 41.23 42.35 41.40 40.59 40.20 40.45 39.44 39.36 38.11 37.50 37.09 37.03 37.29 37.88 37.70 37.49 37.90 37.37 37.34 38.47 36.45 35.60 34.65 33.38 31.81 30.84 29.40 28.06 27.80
40.79 41.11 41.13 41.54 42.16 39.55 38.53 38.38 38.99 38.99 38.45 37.71 37.15 36.97 37.23 36.93 37.18 36.68 36.70 37.61 37.01 37.38 38.19 36.17 35.70 34.16 32.68 30.86 29.24 27.46 27.06 27.62
40.72 40.67 40.68 40.38 39.11 37.37 37.05 37.02 37.40 37.64 37.71 37.73 37.32 37.75 37.69 36.88 36.41 36.88 37.38 37.76 37.77 37.77 37.46 36.53 33.70 33.00 30.76 27.86 28.00 27.54 26.90 26.48
40.63 39.71 38.75 37.26 36.69 35.67 36.35 36.06 36.07 36.61 37.25 36.79 37.83 37.75 37.49 37.05 37.00 36.67 36.51 36.21 37.56 38.00 32.15 30.88 31.35 31.74 32.51 32.52 31.28 27.24 27.41 26.87
38.21 36.76 36.21 35.84 35.41 35.92 34.77 35.08 35.42 34.90 35.75 36.76 37.30 36.86 36.19 36.11 36.36 36.20 35.82 35.31 36.93 31.91 32.17 32.09 30.18 29.56 32.63 32.97 32.51 29.31 27.47 26.57
35.86 35.04 34.53 34.34 34.16 34.03 34.51 34.33 33.53 34.54 34.80 35.08 35.75 35.10 35.44 35.42 35.03 33.98 31.62 31.67 34.38 34.80 31.46 29.87 28.12 29.09 31.82 30.94 29.06 24.83 23.94 24.50

GFSFLT1_sfc_wetblb_039.txt.gz
Wetbulb
54.93 57.82 59.33 60.46 61.06 60.58 60.97 60.40 58.75 56.30 54.26 54.03 54.41 52.40 52.02 52.43 52.16 52.04 52.84 52.58 52.36 52.11 51.48 51.16 51.21 50.71 50.28 50.45 50.08 50.28 50.36 49.73
55.82 57.31 59.49 61.04 61.91 61.87 59.54 59.64 58.96 56.56 54.32 53.30 51.71 51.88 50.92 51.20 51.89 51.87 51.73 51.34 51.23 51.46 50.73 50.47 50.63 49.18 49.28 49.55 48.95 48.08 47.67 48.27
54.80 56.09 57.66 60.16 60.38 61.21 61.08 58.52 57.77 56.61 55.96 55.39 55.09 53.31 52.55 51.56 51.03 50.82 50.89 50.66 50.41 50.14 50.05 49.61 49.36 48.37 47.99 48.00 47.64 45.72 46.38 47.49
52.61 53.16 54.77 56.12 57.04 57.66 59.25 58.32 57.09 56.66 55.50 54.29 53.27 52.72 51.57 50.76 50.39 50.21 49.62 49.40 49.53 49.85 49.66 50.13 49.77 48.65 46.79 47.18 47.16 45.83 43.44 45.80
51.82 51.43 51.32 52.46 52.94 53.80 54.68 54.55 54.34 54.09 54.44 54.22 53.70 53.76 52.88 51.84 50.91 50.18 50.12 48.96 49.26 49.54 49.31 49.49 49.14 49.05 47.28 46.93 47.51 46.66 45.74 42.40
51.01 51.41 51.96 52.33 52.85 53.27 53.71 53.84 53.83 53.59 54.06 54.28 53.88 51.89 51.07 50.34 49.87 48.90 49.35 49.47 48.27 48.54 48.63 48.77 48.50 48.21 47.72 47.25 46.72 46.19 46.03 43.52
51.37 51.87 51.91 51.93 52.58 53.18 53.38 53.05 52.22 53.18 53.42 53.09 52.48 51.41 50.00 49.68 49.66 49.39 49.20 48.18 47.85 47.79 48.01 48.17 48.17 47.68 46.99 46.65 46.50 45.90 45.03 44.10
51.15 51.14 51.23 51.65 51.71 51.41 52.44 53.22 51.83 51.94 52.06 52.16 52.10 51.63 50.85 50.00 49.55 48.86 47.83 47.60 47.41 47.72 47.02 47.00 46.82 46.85 46.62 46.21 45.70 44.83 44.21 43.15
51.35 51.91 52.02 52.58 52.36 52.06 51.91 51.57 50.56 50.54 50.74 50.59 51.02 50.26 50.84 49.63 48.38 47.87 47.46 46.81 46.71 47.10 46.44 46.09 45.67 45.39 45.25 44.95 44.74 44.33 43.77 43.03
51.28 51.75 51.73 50.82 50.52 50.07 51.11 50.92 50.24 49.25 48.54 49.79 49.57 48.99 47.77 47.21 47.15 47.01 46.13 46.11 45.22 45.70 45.99 45.28 45.01 44.99 44.95 44.68 43.89 42.29 42.09 41.95
48.75 48.81 48.96 49.19 48.83 48.83 49.25 49.51 47.75 47.64 47.23 46.80 46.27 45.84 45.46 45.70 46.06 45.55 45.48 45.81 45.33 44.94 44.65 44.54 44.25 44.38 44.29 43.20 42.41 41.60 40.81 41.12
46.29 46.30 46.73 46.90 46.60 47.50 47.44 46.60 45.30 45.30 45.06 45.24 45.06 44.97 44.74 44.93 44.49 44.23 44.07 44.06 43.74 43.29 43.30 43.10 43.00 42.01 40.87 40.52 40.02 39.18 38.25 38.22
45.30 45.46 45.64 45.90 45.83 46.61 44.77 44.83 44.37 44.28 44.76 44.29 43.71 43.91 43.60 43.04 42.92 42.96 43.37 42.59 43.09 42.61 42.52 41.69 40.47 39.63 38.72 38.47 37.74 37.50 35.84 34.99
44.31 44.41 44.78 45.10 43.95 44.14 43.15 43.45 42.86 43.41 43.35 43.44 43.13 42.85 42.28 41.92 42.05 42.27 42.20 41.54 41.12 41.41 41.48 40.92 39.10 39.62 38.41 38.62 37.37 35.46 34.73 33.80
44.10 44.09 44.20 44.51 43.52 42.58 40.99 41.08 42.46 42.36 42.35 42.42 42.32 42.05 41.46 41.50 41.70 41.57 40.86 40.68 39.97 40.15 41.32 41.09 40.14 38.63 38.36 36.76 35.19 34.56 34.34 34.33
43.68 43.11 43.07 42.70 41.36 40.00 41.04 41.33 41.55 41.41 40.96 41.30 41.16 41.83 41.39 40.83 40.29 40.49 39.86 39.85 39.36 39.66 39.93 38.81 37.53 36.18 35.46 34.75 34.71 34.54 33.77 32.57
42.80 42.13 41.08 40.09 39.70 40.32 39.71 39.84 40.03 39.92 39.36 39.97 40.89 40.69 39.92 39.38 39.47 38.87 38.68 38.28 37.55 37.14 35.05 35.68 34.33 34.70 33.36 33.00 32.53 32.38 30.75 29.26
41.55 40.43 39.69 39.39 39.58 39.27 38.95 38.83 38.66 38.12 38.16 39.44 39.17 38.81 38.30 38.29 38.21 37.58 37.51 37.23 37.19 35.46 35.36 35.00 33.59 33.77 32.08 31.23 29.45 30.26 28.69 27.91
41.10 39.31 38.84 38.92 38.90 38.46 37.93 37.90 37.64 37.15 38.00 37.78 37.68 37.47 36.93 36.89 36.36 35.91 36.56 36.14 34.76 35.65 33.92 32.74 32.56 32.05 29.87 29.09 27.94 29.13 27.99 27.37

GFSFLT1_sfc_wetblb_042.txt.gz
Wetbulb
60.19 62.17 63.25 63.93 65.17 65.25 63.99 64.18 59.49 57.99 58.95 58.40 56.33 55.30 54.29 54.65 54.76 55.12 55.57 55.57 56.07 56.48 56.11 55.67 54.84 53.02 51.65 51.59 50.99 51.27 50.77 50.74
61.44 62.66 63.52 63.65 62.82 63.55 63.43 62.45 60.89 60.25 61.51 58.22 55.76 54.00 55.37 56.34 56.84 56.23 55.98 55.94 55.89 55.95 54.59 53.35 52.27 51.26 51.21 51.11 50.34 49.45 48.76 50.31
60.58 62.23 63.30 63.24 62.60 63.07 63.43 63.99 64.10 63.33 61.81 60.15 59.50 58.43 58.41 57.80 56.66 55.95 55.65 55.50 54.47 53.27 52.73 51.93 51.52 50.57 50.73 50.34 49.67 48.15 48.12 48.94
60.20 61.27 62.61 63.24 63.08 63.96 64.01 63.55 62.64 61.33 60.51 59.57 58.93 57.83 56.66 55.56 55.41 55.04 54.65 54.46 53.87 52.56 52.42 51.95 51.38 50.92 49.38 49.86 49.30 48.10 45.84 47.29
58.59 58.29 59.76 61.26 62.01 62.50 60.99 60.87 60.41 60.00 59.61 58.52 57.72 57.69 56.64 57.06 57.75 56.12 55.61 53.86 52.41 51.75 51.63 51.67 51.31 51.17 50.21 49.80 48.91 48.56 47.30 44.89
55.44 55.91 56.96 57.93 58.71 59.38 59.60 59.33 58.51 58.71 58.69 58.27 58.66 57.24 56.93 56.62 55.98 54.24 54.56 54.48 52.63 51.35 51.30 51.49 51.09 50.80 50.49 49.97 49.06 48.29 47.44 45.50
55.41 56.39 56.84 56.83 58.20 58.29 58.40 57.97 57.63 58.03 58.21 57.94 57.34 55.98 54.55 54.60 54.08 52.64 52.68 51.96 51.46 51.35 51.01 51.02 50.79 50.28 49.66 49.19 48.94 47.57 46.52 45.58
55.01 55.30 55.64 56.41 56.64 57.46 57.54 57.73 56.81 57.50 57.29 56.63 55.90 54.67 52.94 51.66 50.94 50.80 50.01 49.67 49.86 50.31 50.59 50.04 49.38 49.16 49.24 48.85 47.68 46.74 45.88 44.66
55.43 55.79 56.15 56.17 56.48 57.41 56.92 56.71 55.80 55.83 55.51 54.55 53.48 51.98 53.20 51.88 51.26 51.02 50.34 49.71 49.82 50.13 49.90 49.39 48.47 48.13 47.87 47.52 46.91 46.37 45.83 44.66
55.52 56.01 56.33 56.61 56.85 56.83 57.03 55.91 54.82 54.12 53.30 52.72 51.47 53.02 51.35 50.70 50.64 50.86 50.41 49.91 48.39 47.24 47.16 46.31 46.31 46.57 46.87 46.84 45.91 45.01 44.69 43.57
55.58 55.92 56.02 56.06 56.02 55.42 55.84 54.83 53.16 51.28 50.33 49.82 50.24 50.05 50.22 50.58 51.10 48.90 47.07 46.42 46.03 45.77 45.40 45.16 45.03 45.46 45.90 45.68 44.73 44.40 42.69 42.15
54.84 54.96 55.07 54.44 53.89 53.68 53.16 51.70 50.38 49.82 48.55 48.28 49.02 49.81 49.34 49.29 48.07 46.05 45.52 45.60 45.13 44.50 44.40 44.44 44.23 44.08 44.50 43.36 43.02 42.76 40.45 40.45
53.60 53.06 52.57 51.70 51.49 51.68 51.04 50.69 49.72 48.71 47.35 47.85 47.33 47.72 47.31 46.22 45.02 44.72 45.67 44.54 44.78 44.11 43.57 43.32 43.69 43.31 42.47 41.54 40.36 40.38 39.48 38.62
51.50 51.16 50.58 50.44 50.35 49.69 49.07 48.39 47.76 46.26 47.10 46.50 46.59 45.97 45.07 44.43 44.31 44.87 44.51 44.02 43.58 43.38 43.06 42.92 42.51 42.23 41.33 40.29 39.95 39.86 39.43 38.79
50.34 50.15 49.99 49.37 48.77 48.29 46.01 46.71 46.30 46.42 45.63 44.95 44.59 44.59 44.58 44.48 44.38 44.04 43.62 43.33 42.59 42.31 42.39 42.34 40.51 40.66 40.26 39.80 39.09 38.69 38.69 38.15
49.50 49.36 49.12 48.71 47.73 46.34 46.72 46.37 45.34 45.29 44.01 43.34 43.44 44.36 44.77 43.95 43.36 43.15 43.07 42.36 41.92 41.41 41.00 39.90 39.62 39.85 38.60 38.60 37.92 37.61 37.06 36.54
49.07 48.84 47.82 46.88 45.72 45.89 44.94 44.04 44.18 44.37 42.95 42.26 43.20 43.78 43.19 42.65 42.42 42.05 41.63 41.36 41.19 40.82 38.36 38.68 37.73 37.66 33.27 31.89 32.35 36.19 35.63 34.17
48.12 47.45 45.93 44.79 44.56 44.19 43.19 43.41 43.73 42.52 41.60 41.57 42.33 41.93 41.37 41.33 41.16 40.65 40.02 40.01 39.82 37.85 38.12 37.05 36.20 36.50 31.52 30.69 29.83 34.27 33.59 32.92
47.67 46.04 43.08 42.72 43.59 42.91 42.57 42.97 42.33 40.97 40.23 40.52 40.81 40.84 40.30 40.49 39.93 39.33 39.52 39.44 37.13 37.92 36.94 36.41 36.35 35.35 29.89 28.86 28.41 33.44 33.04 32.35

GFSFLT1_sfc_wetblb_045.txt.gz
Wetbulb
61.39 62.60 63.26 63.41 65.55 66.53 65.70 64.57 63.21 61.82 62.01 61.56 60.31 58.68 57.40 57.39 56.56 56.57 57.03 57.57 58.02 57.95 57.21 56.43 55.21 54.00 53.27 52.57 51.63 51.36 50.38 49.76
62.32 63.53 64.14 64.09 65.84 65.59 64.04 62.56 62.02 63.75 63.77 60.89 59.87 57.87 57.94 57.86 57.97 57.98 57.98 57.78 57.48 57.02 55.61 54.62 54.01 52.82 52.05 52.30 51.18 50.01 49.19 50.01
62.07 63.47 64.43 64.97 64.21 64.14 63.16 63.21 63.78 64.71 64.12 62.57 61.24 59.56 58.81 58.70 58.39 58.21 58.01 57.30 56.01 55.57 54.43 53.63 53.15 51.82 51.76 51.42 50.52 48.69 48.56 49.71
61.66 62.81 63.50 62.80 61.93 62.59 63.38 64.33 64.14 63.37 61.82 60.75 60.28 59.61 58.81 57.41 57.15 56.84 56.80 56.13 55.41 54.62 53.68 53.16 52.63 51.83 50.33 50.68 50.32 48.57 45.97 47.71
62.22 62.94 62.64 63.17 64.12 64.83 64.88 62.93 61.55 60.93 60.88 59.41 58.58 57.04 55.35 57.14 58.62 58.00 56.70 55.44 54.62 53.52 52.96 52.76 52.32 51.76 50.67 50.24 49.84 49.13 48.36 45.23
60.65 61.33 62.22 62.61 63.02 62.16 61.37 60.90 60.45 60.42 60.11 59.86 59.00 58.05 58.73 58.53 57.87 56.17 55.69 55.57 54.00 52.48 52.40 52.21 51.56 50.89 50.64 50.25 50.19 49.22 47.96 45.39
58.69 59.55 59.86 59.76 61.33 61.04 60.75 60.04 59.22 59.86 59.74 59.71 58.75 57.53 56.29 55.76 54.95 54.30 53.52 53.14 52.18 52.24 51.80 51.76 51.35 50.39 49.29 48.92 49.42 48.16 46.87 46.18
56.75 56.62 56.73 57.76 58.58 59.27 59.42 58.97 58.10 59.10 59.25 58.87 57.94 56.51 55.03 53.22 52.70 52.02 50.80 50.47 50.58 51.09 51.33 50.53 49.71 49.16 48.27 48.26 47.82 47.58 46.33 45.23
56.45 56.89 57.15 57.57 58.34 58.86 58.95 58.53 57.76 58.42 58.07 56.92 56.41 54.84 54.22 53.44 51.62 51.30 50.84 50.46 50.52 51.08 50.19 49.00 47.70 47.09 46.72 47.47 47.15 46.71 46.56 46.01
56.41 57.26 57.63 58.11 58.22 58.45 58.88 58.25 57.01 56.86 55.92 55.23 54.05 53.34 52.09 50.88 51.11 51.59 50.94 51.00 49.34 48.12 47.51 46.52 46.43 46.08 45.85 45.91 46.28 45.81 45.70 44.95
56.79 57.29 57.87 58.51 58.66 59.10 59.24 58.61 56.70 55.50 54.45 53.42 52.37 50.79 50.49 51.13 50.89 49.91 48.85 47.93 47.05 46.30 45.90 45.72 45.31 45.46 45.48 45.23 44.86 44.80 43.69 43.40
56.96 57.60 58.25 58.57 58.75 58.04 57.86 56.95 55.00 53.23 52.39 51.45 50.28 49.85 50.32 50.23 49.12 47.54 46.66 46.49 46.09 45.26 44.99 44.61 44.17 44.21 44.62 44.39 43.68 42.67 41.93 41.64
57.40 57.73 57.85 57.21 56.57 56.21 55.55 54.36 53.02 52.00 50.71 48.65 49.17 49.84 49.29 48.18 46.86 46.02 46.58 45.61 45.75 45.00 44.29 43.90 43.82 43.76 43.92 42.44 40.25 41.32 40.90 40.24
56.95 56.83 56.07 55.49 54.95 54.61 53.91 52.63 51.56 49.83 47.04 49.07 48.84 48.01 47.20 46.23 45.65 45.93 45.69 45.14 44.45 44.25 43.79 43.22 42.85 43.34 42.65 41.43 39.91 40.72 39.87 39.12
55.92 55.07 54.73 54.39 54.00 53.21 51.92 50.51 49.67 47.28 48.65 47.42 46.65 46.36 46.10 45.55 45.68 45.22 44.68 44.33 43.56 43.44 43.27 42.73 42.43 41.21 40.79 40.43 40.02 38.88 38.48 38.52
54.38 53.58 53.46 53.35 52.21 51.20 49.68 49.28 48.72 47.88 46.52 45.76 45.38 45.35 45.79 45.50 44.97 44.20 43.87 43.81 43.09 43.03 42.42 41.93 41.26 39.91 38.93 38.40 38.57 38.12 37.33 37.32
53.75 53.48 53.04 52.10 50.72 49.00 48.80 48.27 47.33 46.12 45.12 44.16 43.98 44.29 44.30 44.05 43.44 43.25 43.05 42.40 42.42 42.49 41.44 40.27 38.29 38.39 33.02 32.36 32.39 36.07 36.07 35.63
52.90 52.68 52.35 51.60 50.15 48.55 47.31 46.76 45.66 44.75 43.49 43.21 42.79 43.17 42.30 42.33 42.36 42.19 41.19 40.96 41.66 40.86 39.25 37.83 36.75 37.51 32.53 30.99 30.17 33.91 34.62 34.87
52.85 52.60 51.57 49.98 49.09 47.25 46.84 45.32 44.74 43.21 42.32 41.65 42.02 41.86 41.58 41.71 41.55 40.97 40.90 41.09 40.48 38.73 38.19 37.18 36.17 36.19 31.82 29.85 28.99 32.88 34.79 34.54

GFSFLT1_sfc_wetblb_048.txt.gz
Wetbulb
58.36 59.87 61.31 64.48 65.19 64.70 64.66 63.18 62.07 61.13 61.26 61.32 60.61 59.22 57.22 56.68 55.83 55.49 56.17 56.13 56.74 56.39 55.13 53.51 52.11 50.99 49.80 48.83 47.97 47.92 46.86 46.02
60.89 61.17 61.56 62.73 65.15 64.32 63.37 61.74 61.79 61.09 62.06 60.11 58.26 56.93 55.92 56.01 56.18 56.56 56.70 56.27 56.20 54.28 53.49 52.04 50.99 49.87 48.97 48.66 47.24 46.07 45.21 45.90
60.54 61.78 62.85 63.26 63.95 63.22 63.01 62.66 61.83 62.31 63.06 60.83 59.99 57.61 56.50 56.49 56.63 56.65 56.77 56.02 54.47 54.14 51.79 51.09 50.49 48.91 48.62 48.25 46.90 45.50 44.56 45.18
59.95 61.30 62.25 64.11 63.30 62.41 62.20 62.76 62.26 63.19 62.07 60.69 59.16 58.39 56.76 55.36 55.52 55.11 55.25 55.01 54.05 52.68 51.62 50.77 49.57 48.58 47.02 47.14 46.46 45.33 42.54 43.34
60.89 61.34 61.33 62.21 61.69 62.82 63.02 63.14 63.25 62.23 60.15 58.44 56.77 55.12 53.71 55.14 54.73 55.43 54.53 54.20 53.07 52.23 50.99 49.94 49.12 48.57 47.35 46.51 46.67 45.31 44.20 41.49
60.57 60.76 61.49 61.66 62.61 62.60 63.36 63.04 60.89 59.65 59.55 58.50 57.21 56.93 54.72 56.25 55.26 54.54 54.45 54.18 53.38 51.66 50.40 49.47 48.47 47.74 47.40 46.70 45.67 44.26 43.63 41.86
60.42 61.73 61.93 61.62 63.17 62.50 60.29 59.12 58.54 59.15 58.99 59.01 58.08 57.32 55.25 53.99 53.26 52.68 52.29 52.43 50.89 50.58 50.36 49.02 48.31 47.46 46.29 44.99 44.43 43.67 42.96 42.29
58.87 59.50 59.53 59.18 59.07 59.30 59.22 58.67 57.54 58.40 58.51 58.25 57.71 56.03 54.46 52.77 51.24 50.66 49.09 48.86 48.16 48.39 48.69 47.58 46.42 45.43 44.50 44.13 43.14 42.58 42.71 41.45
57.14 57.48 57.13 57.53 58.15 58.37 58.23 57.77 56.90 57.94 58.14 57.39 56.18 55.14 52.94 51.58 50.16 49.86 49.08 48.15 48.03 48.60 46.81 45.64 44.93 44.51 43.55 43.00 41.98 41.91 42.05 41.64
56.01 56.21 56.50 56.78 57.21 57.92 58.43 57.36 57.21 57.34 56.59 55.51 53.53 52.62 50.96 49.42 49.74 49.71 48.81 48.57 47.36 45.50 44.40 43.96 43.61 43.46 43.18 42.57 41.40 41.23 42.10 40.40
55.98 55.98 56.58 57.01 57.57 57.89 58.37 58.33 55.92 56.09 54.99 53.58 52.29 51.29 50.12 50.45 49.29 48.33 47.10 45.39 44.96 44.07 43.41 43.12 42.72 42.45 42.11 41.69 40.92 41.17 39.38 39.50
56.03 56.29 56.91 57.54 57.64 57.51 57.90 57.55 54.87 53.75 53.04 51.94 49.87 48.78 49.89 48.73 48.55 46.24 44.67 44.25 43.96 43.45 43.06 42.40 41.89 41.48 41.55 40.88 40.57 39.24 37.95 38.19
56.32 56.71 56.85 56.50 56.96 56.23 56.86 56.56 54.00 52.67 51.10 49.10 48.37 48.80 48.90 48.17 46.22 44.94 44.41 43.38 43.97 43.30 42.83 42.25 42.19 41.55 40.93 40.31 38.48 38.57 38.14 37.38
56.35 56.66 56.06 55.90 56.55 56.08 55.26 54.23 52.80 50.29 48.53 48.59 48.02 48.62 47.41 45.87 44.31 44.14 44.41 43.32 43.33 42.68 42.28 41.68 41.09 40.73 39.82 39.01 38.80 38.12 37.96 36.52
56.01 56.06 56.26 56.06 55.52 54.80 53.66 52.17 49.94 49.17 48.49 48.00 47.19 46.82 45.63 44.41 44.09 44.43 43.52 43.18 42.38 41.93 41.73 41.33 40.79 38.98 38.94 38.89 38.75 36.46 36.21 36.21
55.05 55.47 55.25 55.03 54.15 53.37 52.34 49.88 49.12 48.50 48.28 46.71 45.91 45.26 45.29 44.47 44.48 43.49 43.14 42.90 41.97 41.83 41.26 40.85 39.75 38.57 36.64 34.78 35.33 34.64 34.29 33.72
54.79 55.22 54.76 53.93 52.86 51.63 49.53 48.96 48.28 48.70 46.30 44.69 44.72 44.13 43.85 43.82 42.76 42.65 42.03 41.58 41.00 40.71 39.95 38.84 37.22 37.94 32.93 32.74 31.63 30.79 32.41 31.74
53.90 54.03 53.90 53.06 51.24 50.44 48.14 48.11 47.27 44.83 44.42 44.12 43.61 42.95 42.42 41.82 41.85 41.45 40.67 39.65 39.87 39.04 37.37 36.83 36.84 36.48 33.65 31.82 30.54 29.50 29.82 30.47
53.81 53.64 52.81 51.84 50.03 49.26 47.85 46.07 44.83 44.26 43.24 42.30 41.89 41.45 41.11 41.32 40.97 40.29 39.55 39.34 38.46 37.29 36.03 36.30 36.34 36.56 34.01 31.99 30.10 27.72 29.11 30.15

GFSFLT1_sfc_wetblb_051.txt.gz
Wetbulb
56.68 59.28 60.32 60.42 60.91 61.99 60.39 60.32 59.15 57.88 57.81 57.83 57.07 55.96 54.38 52.92 52.17 52.19 52.92 53.28 53.84 52.49 50.94 48.47 48.65 47.19 46.23 45.75 44.85 44.60 43.70 43.04
54.25 56.29 60.60 60.84 61.35 61.45 60.48 59.48 58.80 58.68 57.89 56.91 55.36 53.18 51.86 51.35 51.72 52.84 53.01 53.26 52.28 50.25 49.37 48.42 47.37 46.30 45.51 45.77 44.36 43.15 42.76 42.57
56.42 56.81 60.84 61.06 60.88 60.80 59.80 59.44 58.57 58.58 60.05 57.92 55.52 53.31 51.70 51.77 52.25 52.63 52.94 51.69 51.16 50.19 48.23 47.13 46.44 45.34 44.73 44.26 43.37 42.65 41.90 42.38
56.16 57.65 58.06 60.61 60.12 59.90 60.06 59.76 59.39 59.51 60.92 57.41 55.12 52.93 51.78 50.89 50.94 51.19 51.54 51.59 50.80 49.51 48.40 47.21 45.93 45.36 43.87 43.39 42.86 41.57 40.07 40.80
56.91 57.48 58.99 59.78 59.60 60.58 60.95 60.66 59.58 59.99 60.65 56.35 53.28 50.29 50.09 50.11 50.72 50.89 50.68 51.19 49.97 49.21 47.85 46.80 45.91 45.30 43.87 43.49 44.50 42.11 40.68 38.46
57.00 58.11 59.63 60.11 60.21 60.57 59.39 59.81 59.79 59.95 56.85 54.89 52.44 50.67 51.03 51.64 52.09 51.87 50.65 50.32 49.49 49.10 47.38 45.59 45.17 44.76 43.84 42.63 41.16 41.04 40.56 38.91
58.20 59.61 60.12 59.60 59.22 58.74 58.96 59.50 58.87 55.06 54.09 53.65 52.53 51.19 51.85 51.83 51.36 51.18 50.40 50.13 48.27 46.95 46.91 44.79 44.33 43.01 41.44 40.66 40.30 39.53 38.97 39.14
57.94 58.72 58.08 58.85 57.82 58.72 59.31 57.63 53.75 53.93 53.89 53.59 52.54 50.70 49.79 49.45 48.03 46.45 45.17 45.65 46.06 45.44 44.30 43.12 42.00 41.25 41.01 40.35 39.44 38.70 38.44 38.06
56.36 57.75 57.96 58.81 56.01 53.94 56.10 53.44 53.38 53.95 53.98 52.76 51.36 50.07 48.25 46.69 46.55 47.42 46.68 46.15 46.37 42.72 41.62 41.18 40.91 41.11 40.55 39.80 38.70 38.48 38.50 37.93
53.10 52.94 54.42 53.43 53.24 53.29 52.73 52.66 53.14 53.92 53.72 51.44 49.52 47.05 46.25 46.50 46.69 46.59 46.64 45.08 44.82 42.07 40.40 39.90 40.03 39.98 40.15 39.28 38.47 37.80 37.54 36.87
51.35 51.80 53.13 53.65 53.46 53.98 53.72 53.08 53.65 53.86 52.95 51.16 49.76 46.30 46.92 46.76 47.15 46.91 45.37 43.43 42.92 42.04 40.37 39.78 39.75 39.81 39.37 38.92 37.57 37.83 36.14 35.74
50.62 50.66 53.13 53.39 53.58 53.70 53.48 52.97 53.59 52.18 50.84 49.01 46.74 46.95 47.95 47.48 47.00 45.15 43.18 42.78 42.24 40.79 40.42 40.43 40.07 39.33 38.86 38.10 37.51 37.04 36.50 35.80
51.41 51.02 51.89 53.15 54.23 55.42 55.26 53.42 51.95 50.22 47.69 47.33 48.34 48.10 47.65 47.14 46.11 43.47 43.06 42.01 41.73 40.77 40.42 40.32 39.71 39.21 38.93 37.89 35.85 36.88 35.99 35.67
51.44 51.00 52.58 54.47 54.85 54.98 54.66 51.60 48.13 47.89 48.04 47.92 47.60 47.17 47.20 44.82 43.66 42.67 42.49 40.96 40.99 39.62 40.99 40.25 39.32 39.37 37.19 37.35 36.78 36.61 35.85 35.73
51.74 51.63 53.08 54.56 54.14 53.81 51.98 47.90 47.69 47.78 47.72 47.79 46.42 46.53 44.78 42.49 42.34 42.14 40.61 40.93 39.83 40.34 40.45 40.21 39.06 37.15 37.18 36.59 36.37 34.69 34.45 34.73
51.02 50.77 51.65 51.70 51.40 49.96 47.81 47.48 47.25 47.53 46.67 45.22 42.40 42.90 42.90 43.06 42.22 41.19 41.21 40.99 40.54 40.38 40.16 38.88 37.34 36.64 35.51 33.37 33.31 32.76 31.47 31.11
50.64 51.69 51.65 50.95 49.99 47.17 47.02 46.34 46.46 47.00 43.35 42.73 42.79 42.64 42.58 41.21 40.24 39.82 40.18 39.62 39.13 39.38 38.36 37.00 35.43 36.78 34.14 33.57 32.02 29.50 30.03 29.20
49.94 50.10 50.35 49.72 47.52 46.87 46.12 46.17 44.43 43.09 42.22 42.50 42.37 42.10 40.65 39.89 39.97 39.72 38.87 38.06 38.28 37.50 36.28 35.76 35.00 34.73 34.55 33.65 31.88 28.02 27.61 27.45
48.90 47.79 45.91 45.95 46.36 46.41 44.40 43.48 42.80 41.95 41.49 40.14 40.30 39.72 39.07 39.18 39.62 38.99 37.86 37.70 36.86 35.67 34.36 34.46 34.19 35.15 35.12 34.28 31.97 26.79 26.97 27.46